sat.trackr.live / text

‹ back to catalog

STARLINK-2699

NORAD 48433 · 2021-040F

PAYLOAD ACTIVE UNKNOWN

§ Identity

Operator
Country
US
Launch date
2021-05-09
Launch site
AFETR
Launch vehicle
Mass (kg)
RCS (m²)

Purposes: comms

External: N2YO · Heavens-Above · Gunter

§ Orbital elements

Epoch: 2026-05-25T01:06:09.227232Z

Period
94.01 min
Inclination
53.1571°
Eccentricity
0.0001240
Mean motion
15.31714066 rev/d
Perigee alt
469.8 km
Apogee alt
471.5 km
Semi-major
6,848.8 km
B*
8.9879e-5
RAAN
157.4757°
Arg perigee
78.2577°
Mean anomaly
281.8563°
Rev number
27,872

§ Raw data

STARLINK-26991 48433U 21040F   26145.04594013  .00002426  00000+0  89879-4 0  99912 48433  53.1571 157.4757 0001240  78.2577 281.8563 15.31714066278728

JSON: /api/v1/satellites/48433 · /tle

For live sub-satellite position, see the globe view (requires WebGL).

§ Visibility from observer

Set your observer location to see the next 7 days of passes ≥ 10°. The values pass through the URL so the page stays shareable.

No JS? Fill the form by hand. The geolocation button needs JavaScript.